IRIDIUM 160

Last updated on Tue Sep 22 2026 00:03:21 GMT+0000 (Coordinated Universal Time)

1 43569U 18061A 26264.27113800 .00000079 00000+0 21164-4 0 9998 2 43569 86.4015 16.6163 0002119 96.7191 263.4246 14.34216987427142
UTC large
Height (km)
Speed (km/s)
/
Latitude / Longitude
Inclination (degrees)
Orbital Period (minutes)
Azimuth
Elevation
Range (km)
Doppler Factor

Next 0 passes for location: London (51.5072 / 0.1276)

No passes found over London.
IRIDIUM 160